Location: Baia de Cri?
(46.1667°N, 22.7167°E)
Time: 09:26:22
(UTC+00:00)

CZ-4C R/B - Pass Details

Date: 15 January 2026
Orbit: 483 x 1496 km, 63.4° (Epoch: 10 February)

Event Time Altitude Azimuth Distance (km) Brightness Sun altitude
Exits shadow 04:33:09 10° 333° (NNW) 2,647 4.4 -16.0°
Reaches altitude 10° 04:33:17 10° 334° (NNW) 2,618 4.4 -15.9°
Maximum altitude 04:37:56 21° 22° (NNE) 2,176 4.4 -15.2°
Drops below altitude 10° 04:43:26 10° 69° (ENE) 3,166 6.0 -14.2°
Sets 04:47:23 0° 84° (E) 4,306 7.2 -13.6°
